Change the Weather History Date:

Saturday, March 23, 2013

  Actual Average (KAKO) Record (KAKO)
Temperature  
Mean Temperature 18 °F 41 °F  
Max Temperature 26 °F 54 °F 80 °F (1967)
Min Temperature 10 °F 28 °F 2 °F (1965)
Degree Days  
Heating Degree Days 46    
Month to date heating degree days  
Cooling Degree Days 0    
Month to date cooling degree days  
Moisture  
Dew Point 17 °F    
Average Humidity 86    
Maximum Humidity 96    
Minimum Humidity 72    
Precipitation  
Precipitation 0.00 in 0.03 in 1.09 in (2013)
Month to date precipitation 0.59  
Year to date precipitation 1.33  
Sea Level Pressure  
Sea Level Pressure 30.02 in    
Wind  
Wind Speed 19 mph (NNW)    
Max Wind Speed 34 mph    
Max Gust Speed 39 mph    
Visibility 6 miles    
Events      
T = Trace of Precipitation, MM = Missing Value Source: NWS Daily Summary

Daily Weather History Graph

Daily Weather History Graph

Search for Another Location

Airport or City:

Trip Planner

Search our weather history database for the weather conditions in past years. The results will help you decide how hot, cold, wet, or windy it might be!

Date:

Astronomy

Mar. 23, 2013 Rise Set
Actual Time 6:53 AM MDT 7:10 PM MDT
Civil Twilight 6:26 AM MDT 7:37 PM MDT
Nautical Twilight 5:54 AM MDT 8:09 PM MDT
Astronomical Twilight 5:21 AM MDT 8:42 PM MDT
Moon 3:39 PM MDT (3/23) 4:31 AM MDT (3/23)
Length of Visible Light 13h 11m
Length of Day
12h 17m
Waxing Gibbous, 85% of the Moon is Illuminated
Mar 23
Waxing Gibbous
Mar 27
Full
Apr 2
Last Quarter
Apr 10
New
Apr 18
First Quarter

Hourly Weather History & Observations

Time (MDT) Temp. Windchill Dew Point Humidity Pressure Visibility Wind Dir Wind Speed Gust Speed Precip Events Conditions
12:15 AM 26.6 °F 14.3 °F 25.5 °F 96% 29.90 in - North 16.1 mph - N/A   Overcast
12:35 AM 26.4 °F 14.0 °F 25.2 °F 95% 29.91 in - North 16.1 mph - N/A   Overcast
12:55 AM 26.4 °F 14.5 °F 25.2 °F 95% 29.91 in - North 15.0 mph - N/A   Overcast
1:15 AM 26.2 °F 12.6 °F 24.8 °F 94% 29.92 in - North 19.6 mph 23.0 mph N/A   Overcast
1:35 AM 26.1 °F 12.0 °F 24.4 °F 94% 29.91 in - North 20.7 mph 24.2 mph N/A   Overcast
2:35 AM 25.5 °F 12.0 °F 23.9 °F 94% 29.88 in - NNE 18.4 mph - N/A   Unknown
2:55 AM 25.5 °F 12.0 °F 23.9 °F 94% 29.86 in - NNE 18.4 mph - N/A   Overcast
3:15 AM 25.7 °F 11.2 °F 23.9 °F 93% 29.87 in - North 21.9 mph - N/A   Overcast
3:35 AM 25.2 °F 11.2 °F 23.4 °F 93% 29.87 in - North 19.6 mph - N/A   Overcast
3:55 AM 25.2 °F 12.9 °F 23.4 °F 93% 29.89 in - North 15.0 mph - N/A   Unknown
4:15 AM 25.0 °F 11.3 °F 23.2 °F 93% 29.89 in - North 18.4 mph - N/A   Overcast
4:35 AM 24.6 °F 10.9 °F 23.0 °F 94% 29.89 in - North 18.4 mph 24.2 mph N/A   Overcast
4:55 AM 24.8 °F 11.5 °F 23.4 °F 94% 29.89 in - North 17.3 mph - N/A   Overcast
5:15 AM 24.8 °F 10.3 °F 23.5 °F 95% 29.89 in - North 20.7 mph - N/A   Overcast
5:35 AM 24.4 °F 8.8 °F 23.0 °F 94% 29.89 in - North 24.2 mph - N/A   Overcast
5:55 AM 23.7 °F 8.2 °F 22.1 °F 94% 29.90 in - North 23.0 mph - N/A   Overcast
6:15 AM 23.7 °F 8.5 °F 22.1 °F 94% 29.90 in - North 21.9 mph - N/A   Overcast
6:35 AM 24.4 °F 9.9 °F 23.0 °F 94% 29.91 in - North 20.7 mph - N/A   Overcast
6:55 AM 23.5 °F 6.4 °F 21.9 °F 94% 29.92 in - North 28.8 mph 33.4 mph N/A   Overcast
7:15 AM 21.4 °F 3.5 °F 19.6 °F 93% 29.92 in - North 28.8 mph 33.4 mph N/A   Overcast
7:35 AM 21.2 °F 3.0 °F 19.4 °F 93% 29.92 in - North 29.9 mph 36.8 mph N/A   Overcast
7:55 AM 20.7 °F 3.1 °F 18.5 °F 91% 29.94 in - North 26.5 mph 33.4 mph N/A   Overcast
8:15 AM 20.1 °F 2.4 °F 17.6 °F 90% 29.94 in - North 26.5 mph 36.8 mph N/A   Overcast
8:35 AM 19.4 °F 0.8 °F 16.9 °F 90% 29.95 in - North 28.8 mph 38.0 mph N/A   Overcast
8:55 AM 19.4 °F 0.5 °F 16.7 °F 89% 29.96 in - North 29.9 mph 34.5 mph N/A   Overcast
9:15 AM 18.9 °F 0.1 °F 15.8 °F 88% 29.96 in - North 28.8 mph 39.1 mph N/A   Overcast
9:35 AM 18.3 °F -2.1 °F 15.3 °F 88% 29.98 in - North 34.5 mph 39.1 mph N/A   Overcast
9:55 AM 17.6 °F -2.5 °F 14.7 °F 88% 29.99 in 0.2 mi North 32.2 mph 38.0 mph N/A   Overcast
10:15 AM 17.4 °F -3.3 °F 14.0 °F 86% 30.00 in 0.2 mi North 34.5 mph 39.1 mph N/A   Overcast
10:35 AM 17.8 °F -1.1 °F 14.2 °F 86% 30.01 in 0.5 mi North 27.6 mph 33.4 mph N/A   Overcast
10:55 AM 18.1 °F 0.1 °F 14.0 °F 84% 30.02 in 0.5 mi North 25.3 mph 33.4 mph N/A   Overcast
11:15 AM 18.3 °F 0.3 °F 13.8 °F 83% 30.03 in 0.8 mi North 25.3 mph - N/A   Overcast
11:35 AM 18.5 °F -0.7 °F 13.5 °F 81% 30.05 in 0.8 mi North 29.9 mph 34.5 mph N/A   Overcast
11:55 AM 18.9 °F 1.7 °F 14.0 °F 81% 30.05 in 0.8 mi North 23.0 mph 28.8 mph N/A   Overcast
12:15 PM 19.4 °F 1.8 °F 14.0 °F 80% 30.06 in 1.0 mi North 25.3 mph 32.2 mph N/A   Overcast
12:35 PM 19.4 °F 1.8 °F 14.0 °F 80% 30.06 in 1.0 mi North 25.3 mph - N/A   Overcast
12:55 PM 19.9 °F 1.8 °F 14.0 °F 78% 30.07 in 1.0 mi North 27.6 mph 32.2 mph N/A   Overcast
1:15 PM 20.3 °F 3.3 °F 14.4 °F 78% 30.07 in 1.2 mi North 24.2 mph 28.8 mph N/A   Overcast
1:35 PM 20.1 °F 3.8 °F 14.4 °F 78% 30.07 in 1.2 mi North 21.9 mph - N/A   Overcast
1:55 PM 20.5 °F 3.2 °F 14.4 °F 77% 30.07 in 1.5 mi North 25.3 mph 32.2 mph N/A   Overcast
2:15 PM 21.9 °F 7.8 °F 15.6 °F 77% 30.07 in 1.8 mi North 17.3 mph - N/A   Overcast
2:35 PM 21.9 °F 9.2 °F 15.8 °F 77% 30.08 in 1.8 mi North 13.8 mph - N/A   Overcast
2:55 PM 21.7 °F 7.5 °F 15.4 °F 77% 30.09 in 1.8 mi North 17.3 mph - N/A   Overcast
3:15 PM 22.1 °F 9.5 °F 15.8 °F 77% 30.09 in 1.8 mi North 13.8 mph - N/A   Overcast
3:35 PM 23.0 °F 10.1 °F 16.7 °F 77% 30.09 in 2.5 mi North 15.0 mph - N/A   Overcast
3:55 PM 23.2 °F 12.6 °F 17.1 °F 77% 30.09 in 3.0 mi North 10.4 mph - N/A   Overcast
4:15 PM 23.0 °F 11.1 °F 16.9 °F 77% 30.09 in 3.0 mi North 12.7 mph - N/A   Overcast
4:35 PM 23.5 °F 10.8 °F 17.2 °F 77% 30.09 in 10.0 mi North 15.0 mph - N/A   Mostly Cloudy
4:55 PM 23.2 °F 12.6 °F 16.5 °F 76% 30.09 in 10.0 mi North 10.4 mph - N/A   Mostly Cloudy
5:15 PM 23.4 °F 12.2 °F 15.6 °F 72% 30.09 in 10.0 mi North 11.5 mph - N/A   Overcast
5:35 PM 22.8 °F 11.5 °F 15.1 °F 72% 30.09 in 10.0 mi North 11.5 mph - N/A   Mostly Cloudy
5:55 PM 22.3 °F 13.9 °F 15.6 °F 76% 30.09 in 10.0 mi North 6.9 mph - N/A   Overcast
6:15 PM 22.1 °F 15.9 °F 15.8 °F 77% 30.10 in - NNW 4.6 mph - N/A   Overcast
6:35 PM 21.2 °F 12.6 °F 15.6 °F 79% 30.10 in - NW 6.9 mph - N/A   Overcast
6:55 PM 20.1 °F 10.3 °F 14.4 °F 78% 30.11 in - NW 8.1 mph - N/A   Overcast
7:15 PM 18.3 °F 8.2 °F 13.3 °F 81% 30.11 in 10.0 mi WNW 8.1 mph - N/A   Scattered Clouds
7:35 PM 17.6 °F 6.4 °F 12.9 °F 82% 30.12 in 10.0 mi WNW 9.2 mph - N/A   Scattered Clouds
7:55 PM 17.6 °F 5.7 °F 13.1 °F 83% 30.12 in 10.0 mi WNW 10.4 mph - N/A   Scattered Clouds
8:15 PM 17.6 °F 6.4 °F 13.1 °F 83% 30.13 in 10.0 mi WNW 9.2 mph - N/A   Overcast
8:35 PM 17.2 °F 6.0 °F 14.0 °F 87% 30.13 in 10.0 mi WNW 9.2 mph - N/A   Scattered Clouds
8:55 PM 17.6 °F 5.7 °F 14.7 °F 88% 30.14 in 10.0 mi WNW 10.4 mph - N/A   Scattered Clouds
9:15 PM 17.1 °F 5.8 °F 14.0 °F 88% 30.15 in 10.0 mi WNW 9.2 mph - N/A   Scattered Clouds
9:35 PM 17.1 °F 6.6 °F 14.4 °F 89% 30.15 in 10.0 mi WNW 8.1 mph - N/A   Clear
9:55 PM 16.0 °F 4.4 °F 13.6 °F 90% 30.15 in 10.0 mi West 9.2 mph - N/A   Scattered Clouds
10:15 PM 15.3 °F 6.6 °F 12.7 °F 90% 30.16 in 10.0 mi West 5.8 mph - N/A   Scattered Clouds
10:35 PM 14.7 °F 5.9 °F 12.2 °F 90% 30.16 in 10.0 mi West 5.8 mph - N/A   Clear
10:55 PM 12.7 °F 1.4 °F 10.2 °F 90% 30.16 in 10.0 mi WNW 8.1 mph - N/A   Clear
11:15 PM 11.8 °F -1.5 °F 7.7 °F 83% 30.16 in 10.0 mi NW 10.4 mph - N/A   Clear
11:35 PM 12.9 °F -0.9 °F 6.3 °F 75% 30.16 in 10.0 mi NW 11.5 mph - N/A   Clear
11:55 PM 10.2 °F -1.7 °F 6.4 °F 85% 30.16 in 10.0 mi WNW 8.1 mph - N/A   Clear